7 * 24
多渠道服务支持
STARLINK-2559是美国SpaceX公司星链(Starlink)计划中的一颗近地轨道卫星,于2021年4月29日发射升空。星链计划旨在构建全球卫星互联网星座,通过大规模低轨卫星组网,为全球任何地点提供低时延、高速的宽带互联网服务,突破传统地面网络的地理限制。STARLINK-2559作为星链星座的组成部分,承担着全球网络覆盖扩展的任务,助力SpaceX实现全球卫星互联网服务的部署,截至2025年,星链已累计发射数千颗卫星,覆盖上百个国家和地区,拥有超500万用户。
美国
(US)
| 数据来源 | 国际轨道数据 |
| 星历时间: | 2026-09-11T10:22:34+0800 10小时前 查看轨道信息 |
| 半长轴: | 6815.722km |
| 偏心率: | 0.0001239 |
| 轨道倾角: | 53.154° |
| 近地点辐角 | 18.413° |
| 升交点赤经 | 287.371° |
| 平近点角 | 341.692° |
| 近地点: | 436.74km |
| 远地点: | 438.43km |
| 周期: | 93.331分钟 |
| 每日圈数: | 15.428901 |